When you browse on this site, cookies collect data to enhance your experience and personalize the content and advertising you see.
Visit our Privacy Policy to learn more. By continuing to use the site, you agree to this use of cookies and data.
  • In Norway
  • List of Countries
  • For 7 days
  • Water Temperature
  • Satellite Maps
  • Weather Map
  • Weather Widgets
  • user-avatar
    Login

    Hourly Weather Townsville

    Today, 23 January, Wednesday

    Time Temperature Precipitation Wind Pressure Humidity
    00:00 +27°C° 0.1 mm 4 mps 752 mmHg 86%
    01:00 +26°C° 0.1 mm 4 mps 752 mmHg 87%
    02:00 +26°C° 0.1 mm 4 mps 751 mmHg 88%
    03:00 +26°C° 0.1 mm 4 mps 751 mmHg 88%
    04:00 +26°C° 0 mm 4 mps 751 mmHg 88%
    05:00 +26°C° 0.1 mm 4 mps 751 mmHg 87%
    06:00 +27°C° 0.1 mm 4 mps 751 mmHg 85%
    07:00 +27°C° 0.1 mm 4 mps 751 mmHg 84%
    08:00 +28°C° 0.2 mm 4 mps 751 mmHg 77%
    09:00 +30°C° 0.2 mm 4 mps 752 mmHg 70%
    10:00 +33°C° 0.2 mm 4 mps 752 mmHg 64%
    11:00 +33°C° 0.4 mm 5 mps 751 mmHg 64%
    12:00 +33°C° 0.4 mm 5 mps 751 mmHg 64%
    13:00 +33°C° 0.4 mm 6 mps 750 mmHg 64%
    14:00 +33°C° 0.1 mm 6 mps 750 mmHg 64%
    15:00 +33°C° 0.1 mm 6 mps 750 mmHg 64%
    16:00 +33°C° 0.1 mm 5 mps 749 mmHg 64%
    17:00 +32°C° 0 mm 5 mps 750 mmHg 69%
    18:00 +30°C° 0 mm 5 mps 750 mmHg 74%
    19:00 +29°C° 0 mm 4 mps 750 mmHg 80%
    20:00 +28°C° 0 mm 4 mps 750 mmHg 82%
    21:00 +28°C° 0 mm 4 mps 751 mmHg 85%
    22:00 +28°C° 0 mm 3 mps 751 mmHg 87%
    23:00 +28°C° 0 mm 3 mps 751 mmHg 88%

    Tomorrow, 24 January, Thursday

    Time Temperature Precipitation Wind Pressure Humidity
    00:00 +27°C° 0 mm 3 mps 751 mmHg 88%
    01:00 +27°C° 0 mm 3 mps 751 mmHg 89%
    02:00 +27°C° 0.1 mm 3 mps 750 mmHg 89%
    03:00 +27°C° 0.1 mm 3 mps 750 mmHg 90%
    04:00 +27°C° 0.1 mm 3 mps 750 mmHg 90%
    05:00 +27°C° 0 mm 3 mps 750 mmHg 88%
    06:00 +27°C° 0 mm 3 mps 751 mmHg 87%
    07:00 +28°C° 0 mm 3 mps 751 mmHg 85%
    08:00 +29°C° 0 mm 3 mps 751 mmHg 80%
    09:00 +30°C° 0 mm 3 mps 751 mmHg 74%
    10:00 +32°C° 0 mm 4 mps 751 mmHg 69%
    11:00 +33°C° 0 mm 4 mps 751 mmHg 66%
    12:00 +33°C° 0 mm 5 mps 750 mmHg 63%
    13:00 +34°C° 0 mm 5 mps 750 mmHg 60%
    14:00 +33°C° 0 mm 5 mps 749 mmHg 63%
    15:00 +33°C° 0 mm 5 mps 749 mmHg 66%
    16:00 +32°C° 0 mm 5 mps 749 mmHg 68%
    17:00 +30°C° 0 mm 5 mps 749 mmHg 72%
    18:00 +29°C° 0 mm 5 mps 749 mmHg 77%
    19:00 +28°C° 0 mm 4 mps 750 mmHg 81%
    20:00 +28°C° 0 mm 4 mps 750 mmHg 83%
    21:00 +28°C° 0 mm 4 mps 751 mmHg 85%
    22:00 +28°C° 0 mm 4 mps 751 mmHg 87%
    23:00 +28°C° 0.1 mm 4 mps 751 mmHg 87%

    Day after tomorrow, 25 January, Friday

    Time Temperature Precipitation Wind Pressure Humidity
    00:00 +27°C° 0.1 mm 4 mps 751 mmHg 87%
    01:00 +27°C° 0.1 mm 4 mps 751 mmHg 88%
    02:00 +27°C° 0.2 mm 4 mps 751 mmHg 88%
    03:00 +27°C° 0.2 mm 4 mps 750 mmHg 89%
    04:00 +27°C° 0.2 mm 4 mps 750 mmHg 89%
    05:00 +27°C° 0.2 mm 4 mps 750 mmHg 88%
    06:00 +27°C° 0.2 mm 5 mps 751 mmHg 87%
    07:00 +27°C° 0.2 mm 5 mps 751 mmHg 86%
    08:00 +28°C° 0.2 mm 5 mps 751 mmHg 81%
    09:00 +29°C° 0.2 mm 5 mps 751 mmHg 75%
    10:00 +30°C° 0.2 mm 5 mps 752 mmHg 69%
    11:00 +32°C° 0 mm 5 mps 751 mmHg 67%
    12:00 +33°C° 0 mm 5 mps 751 mmHg 64%
    13:00 +33°C° 0 mm 5 mps 750 mmHg 62%
    14:00 +32°C° 0 mm 5 mps 750 mmHg 64%
    15:00 +32°C° 0 mm 5 mps 749 mmHg 66%
    16:00 +30°C° 0 mm 5 mps 748 mmHg 69%
    17:00 +29°C° 0 mm 5 mps 749 mmHg 72%
    18:00 +29°C° 0 mm 5 mps 749 mmHg 75%
    19:00 +28°C° 0 mm 5 mps 749 mmHg 78%
    20:00 +28°C° 0.1 mm 5 mps 750 mmHg 79%
    21:00 +28°C° 0.1 mm 5 mps 751 mmHg 80%
    22:00 +28°C° 0.1 mm 5 mps 751 mmHg 81%
    23:00 +28°C° 0.1 mm 5 mps 751 mmHg 82%

    26 January, Saturday

    Time Temperature Precipitation Wind Pressure Humidity
    00:00 +28°C° 0.1 mm 5 mps 750 mmHg 82%
    01:00 +27°C° 0.1 mm 6 mps 750 mmHg 83%
    02:00 +27°C° 0.2 mm 5 mps 750 mmHg 84%
    03:00 +27°C° 0.2 mm 5 mps 749 mmHg 84%
    04:00 +27°C° 0.2 mm 5 mps 749 mmHg 84%
    05:00 +27°C° 0.2 mm 6 mps 749 mmHg 84%
    06:00 +27°C° 0.2 mm 6 mps 749 mmHg 84%
    07:00 +27°C° 0.2 mm 7 mps 749 mmHg 84%
    08:00 +27°C° 0.5 mm 7 mps 750 mmHg 84%
    09:00 +27°C° 0.5 mm 7 mps 750 mmHg 84%
    10:00 +27°C° 0.5 mm 7 mps 750 mmHg 84%
    11:00 +27°C° 0.8 mm 7 mps 749 mmHg 84%
    12:00 +27°C° 0.8 mm 7 mps 749 mmHg 84%
    13:00 +27°C° 0.8 mm 7 mps 748 mmHg 84%
    14:00 +27°C° 1.4 mm 8 mps 748 mmHg 83%
    15:00 +27°C° 1.4 mm 9 mps 747 mmHg 82%
    16:00 +27°C° 1.4 mm 10 mps 747 mmHg 81%
    17:00 +27°C° 1.4 mm 10 mps 747 mmHg 82%
    18:00 +27°C° 1.4 mm 10 mps 747 mmHg 84%
    19:00 +27°C° 1.4 mm 10 mps 747 mmHg 85%
    20:00 +27°C° 1 mm 11 mps 748 mmHg 83%
    21:00 +27°C° 1 mm 13 mps 748 mmHg 82%
    22:00 +27°C° 1 mm 14 mps 748 mmHg 80%
    23:00 +27°C° 2.8 mm 13 mps 748 mmHg 82%

    27 January, Sunday

    Time Temperature Precipitation Wind Pressure Humidity
    00:00 +26°C° 2.8 mm 13 mps 748 mmHg 83%
    01:00 +26°C° 2.8 mm 13 mps 747 mmHg 84%
    02:00 +26°C° 4.1 mm 11 mps 747 mmHg 87%
    03:00 +26°C° 4.1 mm 10 mps 746 mmHg 89%
    04:00 +27°C° 4.1 mm 8 mps 746 mmHg 92%
    05:00 +27°C° 3.4 mm 8 mps 746 mmHg 92%
    06:00 +27°C° 3.4 mm 8 mps 747 mmHg 92%
    07:00 +28°C° 3.4 mm 8 mps 747 mmHg 92%
    08:00 +28°C° 1.5 mm 8 mps 747 mmHg 92%
    09:00 +28°C° 1.5 mm 7 mps 747 mmHg 91%
    10:00 +28°C° 1.5 mm 7 mps 747 mmHg 91%
    11:00 +28°C° 1.4 mm 6 mps 747 mmHg 89%
    12:00 +29°C° 1.4 mm 6 mps 746 mmHg 87%
    13:00 +29°C° 1.4 mm 5 mps 746 mmHg 85%
    14:00 +30°C° 0.5 mm 5 mps 746 mmHg 81%
    15:00 +30°C° 0.5 mm 5 mps 745 mmHg 78%
    16:00 +32°C° 0.5 mm 5 mps 745 mmHg 74%
    17:00 +30°C° 0.1 mm 5 mps 746 mmHg 77%
    18:00 +29°C° 0.1 mm 4 mps 746 mmHg 80%
    19:00 +28°C° 0.1 mm 4 mps 747 mmHg 83%
    20:00 +28°C° 0.3 mm 4 mps 747 mmHg 84%
    21:00 +28°C° 0.3 mm 4 mps 748 mmHg 85%
    22:00 +27°C° 0.3 mm 4 mps 748 mmHg 86%
    23:00 +27°C° 0.6 mm 4 mps 748 mmHg 86%

    28 January, Monday

    Time Temperature Precipitation Wind Pressure Humidity
    00:00 +27°C° 0.6 mm 4 mps 748 mmHg 87%
    01:00 +27°C° 0.6 mm 4 mps 748 mmHg 88%
    02:00 +27°C° 1 mm 4 mps 748 mmHg 89%
    03:00 +27°C° 1 mm 4 mps 747 mmHg 90%
    04:00 +27°C° 1 mm 4 mps 747 mmHg 90%
    05:00 +27°C° 1.1 mm 4 mps 748 mmHg 90%
    06:00 +27°C° 1.1 mm 4 mps 749 mmHg 89%
    07:00 +28°C° 1.1 mm 4 mps 749 mmHg 89%
    08:00 +28°C° 0.9 mm 4 mps 749 mmHg 86%
    09:00 +29°C° 0.9 mm 5 mps 749 mmHg 84%
    10:00 +30°C° 0.9 mm 5 mps 750 mmHg 82%
    11:00 +30°C° 0.4 mm 5 mps 749 mmHg 79%
    12:00 +32°C° 0.4 mm 5 mps 749 mmHg 76%
    13:00 +33°C° 0.4 mm 5 mps 749 mmHg 73%
    14:00 +32°C° 0.1 mm 5 mps 748 mmHg 73%
    15:00 +32°C° 0.1 mm 5 mps 748 mmHg 73%
    16:00 +32°C° 0.1 mm 6 mps 748 mmHg 73%
    17:00 +30°C° 0.4 mm 5 mps 748 mmHg 78%
    18:00 +30°C° 0.4 mm 5 mps 749 mmHg 82%
    19:00 +29°C° 0.4 mm 4 mps 749 mmHg 87%
    20:00 +28°C° 1 mm 4 mps 750 mmHg 88%
    21:00 +28°C° 1 mm 4 mps 750 mmHg 88%
    22:00 +28°C° 1 mm 4 mps 751 mmHg 89%
    23:00 +28°C° 1.3 mm 4 mps 751 mmHg 89%
    Show more